Find OneWeb SL0652

NORAD ID: 55814 Int'l Des: 2023-029 Owner: ONEWEBN Country: UK Constellation: oneweb operational
LEOCIRCULARPOLARONEWEB_TYPE

实时位置

正在加载3D地球...

关于 OneWeb SL0652

正在加载描述...

即将过境

Passes for default location (London). Set your location on the main map for personalized predictions.

高度历史

Loading altitude history...

两行轨道根数

1 55814U 23029U 26125.46740760 .00000208 00000-0 52683-3 0 9996
2 55814 87.8917 298.2377 0001762 98.5927 261.5402 13.14502387153754
Epoch: May 5, 2026 • Age: 10 hours

当前状态

高度 1226.8 km
速度 7.24 km/s
星下点 -51.52°S, 65.85°W
发射日期 Mar 9, 2023
运行时间 3.1 years
类型 internet

技术详情

分类 Payload
质量 148.00 kg
干质量 140.00 kg
总质量 148.00 kg
长度 1.30 m
直径 1.00 m
跨度 5.00 m
形状 Trapezoid+2 pan
制造商 ONEWUS
平台类型 ARROW
阶段状态 In Orbit
所有者/国家 ONEWEBN/UK

Most Searched